COSMOS 1181

Satellite information

Favourite Embed

Satellite Type and Status

PAYLOADIN ORBIT

Key statistics

Satellite COSMOS 1181 at a glance.

Uptime

16547

Days in orbit

Revolutions

≈ 13.7

Per day

Orbit

LEO

Low Earth Orbit

Inclination

82.9

Latest

Satellite identification and parameters

Extended collection of information and parameters for COSMOS 1181.

Object identification

Identified? True

Debris? False

Object name: COSMOS 1181

International designator: 1980-039A

Object number (NORAD): 11803

Object ID (CCSDS): 11803

Country: COMMONWEALTH OF INDEPENDENT STATES (CIS)

Current information (Y/N): Y

RCS size: LARGE

Orbital parameters

Period: 104.79 minutes

Inclination: 82.939 deg

SMA: 7362.758 km

Apoapsis: 1000.286 km

Periapsis: 968.961 km

RAAN: 64.5932 deg

Eccentricy: 0.00212724

Argument of periapsis: 308.5548 deg

Mean anomaly: 160.2552 deg

Mean motion: 13.74174678 rev/day

Mean motion (dot): 0.00000061 rev/day2

B* drag term: 0.000048605422 1/REarth

Two-line elements (TLE)

Creation date: Sept. 8, 2025, 3:16 a.m.

Reference frame: TEME

Reference center: EARTH

Epoch: Sept. 7, 2025, 10:27 p.m. UTC

TLE line 0: 0 COSMOS 1181

TLE line 1: 1 11803U 80039A 25250.93578584 .00000061 00000-0 48605-4 0 9990

TLE line 2: 2 11803 82.9390 64.5932 0021272 308.5548 160.2552 13.74174678271191

Live tracking on map

Real-time ground track for satellite COSMOS 1181.

In-orbit conjunctions

A list of the most updated potential collisions computed for object COSMOS 1181.

Target Orbit TCA Probability of collision Miss distance Type
SL-14 DEB LEO 2025-06-04 06:05:06 0.0001202038 143.0 (m) DEBRIS
THORAD AGENA D DEB SSO 2024-11-22 15:26:17 0.0006955278 184.0 (m) DEBRIS
DELTA 1 DEB SSO 2024-11-08 05:29:24 0.0003143186 894.0 (m) DEBRIS
SL-8 DEB LEO 2024-05-31 05:24:55 0.0001848057 392.0 (m) DEBRIS

Associated space launch

Navigation satellite providing location information for the Tsiklon-B navigation system

COSMOS 1181 was lifted into orbit during the mission ‘Kosmos-3M | Parus 24’, on board a Kosmos-3M space rocket.

The launch took place on May 20, 1980, 9:21 a.m. from 132/2.

For more information about the launch, click the button.

Launch to space Kosmos-3M | Parus 24
Kosmos-3M | Parus 24

Agency: N/A

Status: Launch Successful

Launch date: May 20, 1980, 9:21 a.m. UTC

Rocket: Kosmos-3M

Launch pad: 132/2

Location: Plesetsk Cosmodrome, Russian Federation

...

Latest news about this satellite

There are no fresh news available about this satellite. Check back as we update our databases every day.


Newsletter sign-up

Weekly statistics, charts and insights to help you stay on top of the space industry.